TimeCST,TemperatureF,Dew PointF,Humidity,Sea Level PressureIn,VisibilityMPH,Wind Direction,Wind SpeedMPH,Gust SpeedMPH,PrecipitationIn,Events,Conditions,WindDirDegrees,DateUTC
12:49 AM,32.0,26.6,80,29.51,10.0,North,12.7,20.7,N/A,,Overcast,10,2013-01-30 06:49:00
12:54 AM,32.0,27.0,82,29.54,10.0,North,11.5,19.6,N/A,,Overcast,10,2013-01-30 06:54:00
1:54 AM,30.9,26.1,82,29.53,10.0,North,9.2,18.4,N/A,,Overcast,10,2013-01-30 07:54:00
2:08 AM,30.2,24.8,80,29.48,10.0,North,15.0,21.9,N/A,,Overcast,10,2013-01-30 08:08:00
2:19 AM,30.2,24.8,80,29.48,10.0,North,10.4,-,N/A,,Overcast,10,2013-01-30 08:19:00
2:41 AM,28.4,24.8,86,29.49,10.0,North,11.5,-,N/A,,Overcast,360,2013-01-30 08:41:00
2:54 AM,28.9,25.0,85,29.53,10.0,North,9.2,-,N/A,,Overcast,360,2013-01-30 08:54:00
3:32 AM,28.4,23.0,80,29.51,10.0,North,10.4,19.6,N/A,,Overcast,350,2013-01-30 09:32:00
3:54 AM,28.0,23.0,81,29.54,10.0,North,15.0,20.7,N/A,,Overcast,10,2013-01-30 09:54:00
4:54 AM,28.0,21.9,78,29.54,10.0,North,10.4,19.6,N/A,,Overcast,350,2013-01-30 10:54:00
5:29 AM,26.6,21.2,80,29.46,2.5,North,16.1,25.3,0.00,Snow,Light Snow,10,2013-01-30 11:29:00
5:44 AM,26.6,23.0,86,29.44,1.2,NNE,15.0,25.3,0.00,Snow,Light Snow,20,2013-01-30 11:44:00
5:54 AM,27.0,21.9,81,29.48,1.2,North,10.4,23.0,0.00,Snow,Light Snow,10,2013-01-30 11:54:00
6:06 AM,26.6,21.2,80,29.44,3.0,North,18.4,27.6,0.00,Snow,Light Snow,360,2013-01-30 12:06:00
6:34 AM,26.6,21.2,80,29.44,2.5,North,15.0,25.3,0.00,Snow,Light Snow,360,2013-01-30 12:34:00
6:50 AM,26.6,23.0,86,29.43,1.5,North,12.7,-,0.00,Snow,Light Snow,360,2013-01-30 12:50:00
6:54 AM,26.1,23.0,88,29.48,1.5,North,15.0,21.9,0.00,Snow,Light Snow,360,2013-01-30 12:54:00
7:12 AM,26.6,23.0,86,29.44,1.0,North,11.5,-,0.00,Snow,Light Snow,360,2013-01-30 13:12:00
7:21 AM,26.6,23.0,86,29.43,0.8,North,10.4,18.4,0.00,Snow,Light Snow,360,2013-01-30 13:21:00
7:54 AM,25.0,23.0,92,29.48,0.5,North,11.5,-,0.00,Fog-Snow,Snow,350,2013-01-30 13:54:00
8:06 AM,24.8,23.0,93,29.42,0.5,North,8.1,-,0.00,Fog-Snow,Snow,360,2013-01-30 14:06:00
8:24 AM,24.8,21.2,86,29.42,0.5,North,9.2,-,0.00,Fog-Snow,Snow,360,2013-01-30 14:24:00
8:54 AM,24.1,21.9,91,29.50,0.5,NNW,10.4,-,0.01,Fog-Snow,Snow,340,2013-01-30 14:54:00
9:54 AM,24.1,21.0,88,29.46,0.2,North,15.0,24.2,0.01,Fog-Snow,Snow,360,2013-01-30 15:54:00
10:21 AM,24.8,21.2,86,29.43,0.8,North,10.4,25.3,0.00,Snow,Light Snow,350,2013-01-30 16:21:00
10:40 AM,24.8,19.4,80,29.43,0.5,North,16.1,-,0.00,Fog-Snow,Snow,350,2013-01-30 16:40:00
10:54 AM,24.1,19.9,84,29.47,0.5,North,11.5,-,0.00,Fog-Snow,Snow,350,2013-01-30 16:54:00
11:39 AM,24.8,19.4,80,29.40,0.2,North,12.7,24.2,0.00,Fog-Snow,Snow,360,2013-01-30 17:39:00
11:54 AM,23.0,19.9,88,29.45,0.2,North,15.0,24.2,0.00,Fog-Snow,Snow,350,2013-01-30 17:54:00
12:04 PM,24.8,19.4,80,29.40,0.5,NNW,15.0,21.9,0.00,Fog-Snow,Snow,340,2013-01-30 18:04:00
12:25 PM,23.0,19.4,86,29.40,1.0,NNW,18.4,-,0.00,Snow,Light Snow,330,2013-01-30 18:25:00
12:29 PM,23.0,17.6,80,29.40,1.2,NNW,19.6,26.5,0.00,Snow,Light Snow,330,2013-01-30 18:29:00
12:45 PM,23.0,17.6,80,29.39,2.0,NNW,16.1,27.6,0.00,Snow,Light Snow,340,2013-01-30 18:45:00
12:54 PM,21.9,18.0,85,29.44,1.8,NNW,18.4,-,0.00,Snow,Light Snow,330,2013-01-30 18:54:00
1:23 PM,21.2,17.6,86,29.39,0.8,NNW,17.3,25.3,0.00,Snow,Light Snow,330,2013-01-30 19:23:00
1:44 PM,21.2,17.6,86,29.39,0.5,NNW,20.7,-,0.00,Fog-Snow,Snow,330,2013-01-30 19:44:00
1:54 PM,21.9,17.1,82,29.44,0.8,NNW,20.7,-,0.00,Snow,Light Snow,330,2013-01-30 19:54:00
2:00 PM,21.2,17.6,86,29.39,1.0,NNW,24.2,28.8,0.00,Snow,Light Snow,330,2013-01-30 20:00:00
2:22 PM,19.4,15.8,86,29.39,0.8,NW,21.9,27.6,0.00,Snow,Light Snow,310,2013-01-30 20:22:00
2:54 PM,18.0,14.0,84,29.46,0.8,NW,21.9,31.1,0.00,Snow,Light Snow,310,2013-01-30 20:54:00
3:54 PM,17.1,12.9,84,29.48,1.0,NW,20.7,-,0.00,Snow,Light Snow,310,2013-01-30 21:54:00
4:11 PM,15.8,12.2,86,29.43,1.5,NW,24.2,31.1,0.00,Snow,Light Snow,320,2013-01-30 22:11:00
4:54 PM,16.0,10.9,81,29.50,1.5,NW,20.7,27.6,0.00,Snow,Light Snow,320,2013-01-30 22:54:00
5:13 PM,15.8,10.4,79,29.45,2.0,NW,21.9,-,0.00,Snow,Light Snow,320,2013-01-30 23:13:00
5:32 PM,15.8,10.4,79,29.45,3.0,NW,20.7,27.6,0.00,Snow,Light Snow,320,2013-01-30 23:32:00
5:54 PM,15.1,10.0,80,29.53,4.0,NW,20.7,-,0.00,Snow,Light Snow,320,2013-01-30 23:54:00
6:12 PM,15.8,10.4,79,29.47,2.5,NW,19.6,25.3,0.00,Snow,Light Snow,310,2013-01-31 00:12:00
6:36 PM,14.0,8.6,79,29.47,4.0,NW,19.6,-,0.00,Snow,Light Snow,310,2013-01-31 00:36:00
6:54 PM,12.9,9.0,84,29.55,4.0,NW,18.4,26.5,0.00,Snow,Light Snow,310,2013-01-31 00:54:00
7:10 PM,12.2,8.6,85,29.48,6.0,NW,17.3,-,0.00,Snow,Light Snow,310,2013-01-31 01:10:00
7:22 PM,12.2,8.6,85,29.49,6.0,NW,19.6,25.3,0.00,Snow,Light Snow,310,2013-01-31 01:22:00
7:54 PM,12.9,7.0,77,29.56,9.0,NW,16.1,-,0.00,,Overcast,310,2013-01-31 01:54:00
8:51 PM,12.2,6.8,79,29.51,8.0,NW,19.6,-,0.00,,Overcast,310,2013-01-31 02:51:00
8:54 PM,12.9,7.0,77,29.57,8.0,NW,17.3,-,0.00,,Overcast,310,2013-01-31 02:54:00
9:12 PM,12.2,8.6,85,29.51,1.8,WNW,16.1,-,0.00,Snow,Light Snow,300,2013-01-31 03:12:00
9:24 PM,12.2,6.8,79,29.51,3.0,WNW,17.3,-,0.00,Snow,Light Snow,300,2013-01-31 03:24:00
9:54 PM,12.0,7.0,80,29.59,4.0,WNW,15.0,-,0.00,Snow,Light Snow,290,2013-01-31 03:54:00
10:31 PM,10.4,6.8,85,29.53,2.5,WNW,16.1,-,0.00,Snow,Light Snow,300,2013-01-31 04:31:00
10:41 PM,10.4,6.8,85,29.53,3.0,WNW,13.8,-,0.00,Snow,Light Snow,300,2013-01-31 04:41:00
10:54 PM,10.0,5.0,80,29.60,3.0,WNW,18.4,-,0.00,Snow,Light Snow,300,2013-01-31 04:54:00
11:36 PM,10.4,3.2,73,29.55,7.0,WNW,18.4,26.5,0.00,,Overcast,300,2013-01-31 05:36:00
11:54 PM,10.0,3.0,73,29.63,7.0,WNW,20.7,26.5,0.00,,Overcast,300,2013-01-31 05:54:00